Location: Evergreen Manor
(41.4083°N, 81.4939°W)
Time: 08:40:33
(UTC+00:00)

Cosmos 1943 - Pass Details

Date: 11 December 2019
Orbit: 835 x 849 km, 71.0° (Epoch: 26 January)

Event Time Altitude Azimuth Distance (km) Brightness Sun altitude
Exits shadow 10:35:20 31° 340° (NNW) 1,438 4.1 -22.9°
Maximum altitude 10:38:11 85° 66° (ENE) 844 3.1 -22.4°
Drops below altitude 10° 10:43:48 10° 156° (SSE) 2,441 6.1 -21.4°
Sets 10:46:13 0° 156° (SSE) 3,373 6.8 -20.9°
